991  
ASUS44 KOHX 170410  
RWROHX  
MIDDLE TENNESSEE HOURLY WEATHER ROUNDUP  
NATIONAL WEATHER SERVICE NASHVILLE TN  
1100 PM CDT SAT OCT 16 2021  
 
NOTE: "FAIR" INDICATES FEW OR NO CLOUDS BELOW 12,000 FEET WITH  
NO SIGNIFICANT WEATHER AND/OR S TO VISIBILITY
.  
 
* THESE REPORTS ARE NOT UNDER NWS QUALITY CONTROL AND MAY NOT  
REPORT WEATHER SUCH AS PRECIPITATION AND FOG.
 
 
 
TNZ005>011-023>034-057-059-062>066-078-080-170500   
..NORTHERN MIDDLE TENNESSEE
 
 
 
CITY SKY/WX TMP DP RH WIND PRES REMARKS
 
CLARKSVILLE CLEAR 47 41 80 W3 30.22R  
CROSSVILLE CLEAR 42 40 92 CALM 30.19R  
DICKSON CLEAR 48 41 76 CALM 30.21S  
GALLATIN CLEAR 46 45 93 CALM 30.23S  
LEBANON CLEAR 46 43 87 CALM 30.19S  
LIVINGSTON CLEAR 50 37 62 NW6 30.18S  
NASHVILLE CLEAR 53 40 61 NW3 30.22R  
PORTLAND CLEAR 50 41 71 CALM 30.20S  
SMYRNA CLEAR 49 42 77 NW5 30.22S  
SPARTA CLEAR 41 41 100 CALM 30.19S  
SPRINGFIELD CLEAR 46 43 87 CALM 30.20S  

 
TNZ056-058-060-061-075>077-079-093>097-170500   
..SOUTHERN MIDDLE TENNESSEE
 
 
 
CITY SKY/WX TMP DP RH WIND PRES REMARKS
 
COLUMBIA CLEAR 46 46 100 CALM 30.20R  
FAYETTEVILLE CLEAR 50 43 76 NW3 30.21S  
LAWRENCEBURG PTCLDY 46 43 87 CALM 30.21R  
LEWISBURG CLEAR 43 43 100 CALM 30.21R  
MCMINNVILLE CLEAR 43 43 100 CALM 30.20R  
MURFREESBORO PTCLDY 48 43 81 CALM 30.19S HAZE  
PULASKI PTCLDY 45 45 100 CALM 30.20S  
SHELBYVILLE CLEAR 45 43 93 CALM 30.20S  
TULLAHOMA CLEAR 45 41 87 N3 30.19S  
WINCHESTER CLEAR 46 45 93 CALM 30.19S  

 
 
   
..KEY TO REMARKS
 
 
VSB - VISIBILITY IN MILES  
WCI - WIND CHILL INDEX  
HX - HEAT INDEX  
 
 
 
CLICK HERE TO GO TO PREVIOUS BULLETINS.

The Nexlab TN Page Main Text Page